[[{"header":{"parameterUnit":"m.s-1","parameterCategory":1,"la1":30.2991,"la2":30.254,"lo1":-89.0895,"lo2":-89.0444,"dy":0.0017,"dx":0.0017,"nx":28,"ny":28,"refTime":"2024-04-19T21:00:00:Z","depth":0,"parameterNumber":2,"parameterNumberName":"U-component_of_WINDS"},"data":[0,0,0,0,0,0,0,0,0,0,0,0,0,0,0,0,0,0,0,0,0,0,0,0,0,0,0,0,0,0,0,0,0,0,0,0,0,0,0,0,0,0,0,0,0,0,0,0,0,0,0,0,0,0,0,0,0,0,0.1277,0.1279,0,0.1395,0.1397,0.1398,0.143,0.1429,0.1429,0.1428,0.1551,0.1555,0.1559,0,0,0,0,0,0,0,0,0,0,0,0,0,0.108,0.1084,0.1277,0.1279,0.128,0.1395,0.1397,0.1398,0.143,0.1429,0.1428,0.1428,0.155,0.1554,0.1559,0,0,0,0,0,0,0,0,0,0,0,0,0,0.1179,0.1085,0.1277,0.131,0.1314,0.1395,0.1397,0.1399,0.143,0.1429,0.1428,0.1427,0.1548,0.1554,0.156,0.1617,0,0,0.1578,0.158,0,0,0,0,0,0,0,0,0.1173,0.1186,0.1304,0.1308,0.1313,0.1397,0.1373,0.1472,0.1431,0.1386,0.1428,0.1427,0.1501,0.151,0.1535,0.1623,0.1628,0.1578,0.1582,0.1584,0.1586,0,0,0,0,0,0,0,0.1166,0.1181,0.1324,0.1305,0.1311,0.1319,0.1332,0.1392,0.1448,0.139,0.1393,0.1406,0.1503,0.1529,0.1538,0.163,0.1578,0.1583,0.1587,0.1589,0.177,0.1771,0,0,0,0,0,0,0.1154,0.1175,0.132,0.1328,0.1239,0.1323,0.1338,0.1371,0.1447,0.1458,0.1407,0.1407,0.152,0.1531,0.1542,0.1614,0.1584,0.159,0.1593,0.1768,0.177,0.1771,0,0,0,0,0,0,0.1149,0.1166,0.1316,0.1252,0.1272,0.1328,0.1365,0.1374,0.14,0.146,0.147,0.1423,0.1519,0.1534,0.1598,0.1619,0.1592,0.1598,0.1767,0.1769,0.1771,0.1758,0,0,0,0,0,0,0.1144,0.1165,0.1187,0.1252,0.1275,0.1369,0.1366,0.1377,0.141,0.1411,0.1478,0.1488,0.152,0.1589,0.1604,0.1626,0.1602,0.1765,0.1768,0.177,0.1756,0.1759,0.1761,0,0,0,0,0,0.1136,0.1179,0.1188,0.1205,0.1304,0.137,0.1383,0.1417,0.1411,0.1434,0.1473,0.1486,0.1614,0.1595,0.1612,0.1637,0.1764,0.1767,0.177,0.1755,0.1758,0.1761,0,0,0,0,0,0,0.1115,0.1188,0.1199,0.1264,0.131,0.1375,0.1405,0.1419,0.1469,0.1468,0.151,0.1525,0.1585,0.1618,0.1595,0.1696,0.1689,0.1696,0.1672,0.1676,0.1678,0.1669,0.1607,0,0,0,0,0,0.1118,0.1165,0.1226,0.1278,0.13,0.1348,0.1378,0.1401,0.1451,0.1471,0.1514,0.1563,0.1614,0.1647,0.1697,0.1761,0.1776,0.1786,0.1789,0.179,0.1795,0.1831,0.1836,0.1781,0.1781,0.1781,0,0,0.1124,0.117,0.1197,0.1275,0.1313,0.1361,0.1365,0.1416,0.1451,0.1479,0.1541,0.1575,0.1631,0.1695,0.1726,0.1724,0.1814,0.1794,0.1795,0.1799,0.1834,0.1839,0.1844,0.1783,0.1782,0.1782,0,0,0.116,0.12,0.1246,0.1285,0.1343,0.1374,0.1385,0.1448,0.1471,0.1534,0.1555,0.1599,0.1686,0.1725,0.1757,0.1806,0.182,0.1822,0.1833,0.1867,0.1872,0.1876,0.1893,0.1899,0.1826,0.1826,0.1826,0,0.1161,0.1234,0.1269,0.1318,0.1351,0.1377,0.1425,0.1461,0.1532,0.1555,0.1552,0.1661,0.1701,0.1774,0.1786,0.1811,0.1825,0.1814,0.1868,0.1873,0.1877,0.1894,0.19,0.1826,0.1826,0.1826,0.1826,0,0.1231,0.1281,0.1312,0.1379,0.1416,0.1465,0.1507,0.154,0.1559,0.1591,0.1654,0.1703,0.1764,0.1783,0.1803,0.1859,0.1856,0.186,0.1854,0.1881,0.1898,0.1905,0.1826,0.1826,0.1826,0.1826,0,0,0.1258,0.1343,0.1354,0.1384,0.145,0.1489,0.1539,0.1597,0.1624,0.1672,0.1715,0.1787,0.1791,0.1827,0.1851,0.1881,0.1916,0.1882,0.1884,0.1886,0.1981,0.1977,0.1983,0.1926,0.1928,0.1929,0.1976,0,0.1301,0.139,0.1422,0.1495,0.1541,0.1566,0.1609,0.1654,0.1685,0.1729,0.1763,0.1814,0.1815,0.1837,0.1868,0.1905,0.1936,0.1903,0.1966,0.1968,0.195,0.1992,0.1989,0.2031,0.1982,0.1984,0.1984,0,0.1364,0.1412,0.1489,0.1548,0.1569,0.1606,0.1662,0.1704,0.1755,0.1775,0.1814,0.1836,0.1889,0.188,0.1952,0.1929,0.1957,0.1979,0.1982,0.1989,0.1977,0.2,0.2045,0.2051,0.1995,0.1994,0.1993,0,0.1375,0.1459,0.1515,0.1541,0.1611,0.1637,0.1668,0.1718,0.1751,0.1799,0.1821,0.1875,0.1905,0.1946,0.1983,0.1973,0.2052,0.2046,0.207,0.2069,0.2086,0.2084,0.2135,0.2104,0.2104,0.2104,0.2104,0,0.142,0.1466,0.1521,0.1556,0.1608,0.1645,0.1696,0.1728,0.1772,0.1814,0.1839,0.1878,0.1923,0.1968,0.1996,0.2052,0.2065,0.2083,0.209,0.2081,0.2078,0.21,0.2097,0.2106,0.2105,0.2105,0.2105,0,0.1441,0.1479,0.1543,0.1604,0.162,0.1656,0.1708,0.1743,0.1774,0.1827,0.1841,0.1891,0.1944,0.1984,0.2054,0.2073,0.2133,0.214,0.2115,0.2118,0.214,0.2137,0.2206,0.2217,0.2179,0.2179,0.2179,0,0.1467,0.1502,0.1567,0.1596,0.1626,0.1673,0.1706,0.1744,0.1778,0.1838,0.1866,0.1921,0.1967,0.2051,0.2094,0.2147,0.2156,0.2176,0.2164,0.2153,0.2156,0.2153,0.2157,0.2178,0.2178,0.2178,0.2179,0,0.1508,0.1526,0.1572,0.1625,0.1663,0.1707,0.1751,0.1774,0.182,0.1856,0.1911,0.1946,0.2017,0.2071,0.2128,0.216,0.2177,0.2182,0.219,0.2181,0.2165,0.2173,0.2119,0.218,0.218,0.218,0.218,0.218,0.1532,0.1565,0.1615,0.1666,0.1703,0.1743,0.1779,0.1814,0.186,0.192,0.194,0.1996,0.2046,0.2124,0.2157,0.2202,0.2202,0.2214,0.2217,0.2219,0.2218,0.2157,0.2212,0.2212,0.2212,0.2212,0.2212,0,0.1575,0.1608,0.1655,0.1715,0.1755,0.1766,0.1816,0.1848,0.1897,0.1942,0.1986,0.2049,0.2101,0.2148,0.2202,0.2229,0.2238,0.2242,0.224,0.2247,0.2215,0.2202,0.2234,0.2234,0.2234,0.2234,0.2234,0.2234,0.1602,0.1657,0.168,0.1754,0.1788,0.1842,0.1869,0.1907,0.1942,0.2011,0.2054,0.2084,0.2129,0.2187,0.2236,0.2248,0.2267,0.2269,0.2283,0.2252,0.225,0.2247,0.2235,0.2273,0.2273,0.2312,0.2312,0.2312]},{"header":{"parameterUnit":"m.s-1","parameterCategory":1,"la1":30.2991,"la2":30.254,"lo1":-89.0895,"lo2":-89.0444,"dy":0.0017,"dx":0.0017,"nx":28,"ny":28,"refTime":"2024-04-19T21:00:00:Z","depth":0,"parameterNumber":3,"parameterNumberName":"V-component_of_WINDS"},"data":[0,0,0,0,0,0,0,0,0,0,0,0,0,0,0,0,0,0,0,0,0,0,0,0,0,0,0,0,0,0,0,0,0,0,0,0,0,0,0,0,0,0,0,0,0,0,0,0,0,0,0,0,0,0,0,0,0,0,3.0902,3.0901,0,3.0831,3.083,3.083,3.079,3.079,3.0789,3.0789,3.071,3.0708,3.0706,0,0,0,0,0,0,0,0,0,0,0,0,0,3.0996,3.0995,3.0902,3.0901,3.09,3.0831,3.083,3.0829,3.079,3.079,3.0789,3.0789,3.071,3.0708,3.0705,0,0,0,0,0,0,0,0,0,0,0,0,0,3.0943,3.0994,3.0902,3.0872,3.0869,3.0832,3.083,3.0829,3.079,3.079,3.0789,3.0789,3.0711,3.0708,3.0705,3.069,0,0,3.0696,3.0695,0,0,0,0,0,0,0,0,3.0947,3.094,3.0877,3.0874,3.087,3.0819,3.0835,3.0782,3.079,3.0819,3.0789,3.0789,3.0746,3.074,3.0727,3.0686,3.0683,3.0696,3.0694,3.0692,3.0692,0,0,0,0,0,0,0,3.095,3.0943,3.0874,3.0877,3.0872,3.086,3.0853,3.0824,3.0784,3.0817,3.0814,3.0806,3.0744,3.073,3.0725,3.0681,3.0696,3.0693,3.0691,3.069,3.0626,3.0626,0,0,0,0,0,0,3.096,3.0946,3.0876,3.0872,3.0909,3.0859,3.085,3.0836,3.0784,3.0777,3.0807,3.0805,3.0735,3.0728,3.0722,3.0701,3.0692,3.069,3.0688,3.0626,3.0626,3.0626,0,0,0,0,0,0,3.0962,3.0954,3.0879,3.0908,3.0898,3.0858,3.0841,3.0834,3.0821,3.0777,3.0769,3.08,3.0735,3.0726,3.0699,3.0698,3.0688,3.0686,3.0626,3.0626,3.0626,3.066,0,0,0,0,0,0,3.0965,3.0955,3.095,3.0908,3.0896,3.0859,3.0841,3.0833,3.0816,3.0813,3.0769,3.0761,3.0734,3.0704,3.0696,3.0694,3.0683,3.0626,3.0626,3.0626,3.0659,3.0662,3.0664,0,0,0,0,0,3.0968,3.096,3.095,3.0941,3.089,3.0859,3.0852,3.0823,3.0816,3.081,3.0783,3.0762,3.07,3.0701,3.0692,3.0689,3.0626,3.0626,3.0626,3.0658,3.0661,3.0664,0,0,0,0,0,0,3.0999,3.0954,3.0942,3.0921,3.0895,3.0853,3.0844,3.0827,3.08,3.0798,3.0761,3.0751,3.0728,3.0705,3.0708,3.0672,3.066,3.0659,3.0688,3.069,3.0693,3.0698,3.0681,0,0,0,0,0,3.1004,3.0986,3.0946,3.0931,3.0919,3.0884,3.0869,3.085,3.082,3.0808,3.0778,3.0748,3.0722,3.0705,3.0678,3.0656,3.0646,3.0649,3.0652,3.0654,3.0653,3.0641,3.0642,3.0627,3.0627,3.0627,0,0,3.1013,3.0986,3.0976,3.0937,3.0914,3.0894,3.0875,3.0853,3.0838,3.0804,3.0778,3.0755,3.0719,3.0695,3.0683,3.0676,3.0655,3.0654,3.0657,3.0654,3.0641,3.0643,3.0644,3.0627,3.0627,3.0627,0,0,3.1019,3.0997,3.0983,3.0962,3.0929,3.0906,3.0903,3.0864,3.0849,3.0822,3.0797,3.0777,3.0732,3.0708,3.069,3.069,3.067,3.0682,3.0694,3.0682,3.0684,3.0684,3.0685,3.0685,3.0681,3.0681,3.0681,0,3.1033,3.1004,3.0977,3.0959,3.0942,3.0914,3.0899,3.0878,3.0837,3.0826,3.0819,3.0764,3.0737,3.0708,3.0709,3.0695,3.0689,3.0686,3.0686,3.0687,3.0687,3.0687,3.0687,3.0683,3.0682,3.0682,3.0682,0,3.1024,3.1004,3.0996,3.0961,3.0944,3.0927,3.0896,3.0881,3.0864,3.0841,3.0815,3.0783,3.075,3.0742,3.0723,3.071,3.0707,3.0694,3.0681,3.0691,3.069,3.069,3.0685,3.0684,3.0684,3.0683,0,0,3.1045,3.0998,3.0996,3.098,3.0943,3.0926,3.0908,3.0879,3.0867,3.084,3.0824,3.0788,3.0776,3.0756,3.0734,3.0724,3.0727,3.0712,3.0711,3.0717,3.0712,3.0722,3.0723,3.0715,3.0715,3.0715,3.0715,0,3.1046,3.1015,3.0991,3.0968,3.095,3.0924,3.0908,3.0883,3.0862,3.0842,3.0817,3.0793,3.078,3.0767,3.0757,3.073,3.0726,3.0729,3.0698,3.0697,3.0708,3.0722,3.0732,3.0734,3.0715,3.0715,3.0714,0,3.1043,3.1021,3.0997,3.0964,3.0955,3.0942,3.0914,3.0895,3.0866,3.0852,3.0831,3.0809,3.0788,3.0778,3.0748,3.0751,3.0736,3.0721,3.0721,3.0716,3.0706,3.0718,3.0734,3.0735,3.0714,3.0714,3.0714,0,3.1062,3.1025,3.1007,3.0995,3.0955,3.0947,3.0929,3.0901,3.0885,3.086,3.085,3.0821,3.0806,3.0784,3.0755,3.0751,3.0728,3.0715,3.0714,3.0715,3.071,3.071,3.0724,3.0701,3.0701,3.0701,3.0701,0,3.1065,3.1051,3.1016,3.1004,3.0988,3.0961,3.0945,3.0925,3.09,3.0884,3.0858,3.0843,3.0806,3.0786,3.0763,3.0742,3.0734,3.0721,3.0715,3.0723,3.0725,3.0713,3.0712,3.0701,3.0701,3.0701,3.0701,0,3.1083,3.1058,3.1037,3.1003,3.0994,3.0984,3.0954,3.0941,3.092,3.09,3.0893,3.0859,3.0834,3.0804,3.0768,3.0752,3.0733,3.0724,3.0744,3.0741,3.0741,3.0742,3.0747,3.0747,3.0725,3.0725,3.0725,0,3.1086,3.1076,3.1042,3.1031,3.1015,3.0997,3.0982,3.0954,3.094,3.0907,3.0898,3.0873,3.085,3.0811,3.0782,3.0755,3.0745,3.0749,3.074,3.0749,3.0745,3.0746,3.0745,3.075,3.0751,3.0751,3.0751,0,3.1095,3.1085,3.1066,3.1043,3.1027,3.1007,3.0986,3.0977,3.0945,3.093,3.0906,3.0889,3.0855,3.0829,3.0798,3.0778,3.0759,3.0755,3.0753,3.0761,3.0773,3.0767,3.075,3.0754,3.0754,3.0754,3.0754,3.0754,3.1106,3.1096,3.1072,3.1052,3.1034,3.1016,3.1003,3.0982,3.0962,3.0934,3.0918,3.0895,3.0867,3.0825,3.0806,3.0786,3.0779,3.0777,3.0776,3.0776,3.0779,3.0778,3.078,3.078,3.078,3.078,3.078,0,3.1114,3.1098,3.108,3.1053,3.1038,3.1025,3.1001,3.0988,3.0969,3.0946,3.0926,3.0898,3.0874,3.0844,3.0818,3.0807,3.0798,3.0801,3.0801,3.0797,3.0786,3.079,3.0809,3.0809,3.0809,3.0809,3.0809,3.0809,3.1116,3.11,3.1087,3.1061,3.1044,3.1023,3.1011,3.0994,3.0975,3.0947,3.0928,3.091,3.0884,3.0856,3.0833,3.0824,3.0816,3.0822,3.0811,3.08,3.0798,3.0795,3.0799,3.082,3.082,3.0823,3.0824,3.0824]}]]